| time (UTC) | temp C | wind direction | speed KPH | gust KPH | rain 1hr cm | rain 24hr cm | rain mn cm | humidity % | barometer mb |
| 20260503201503 | 13 | 128 | 4.8 | 9.7 | 0.00 | 0.00 | 0.00 | 83 | 1014.9 |
| 20260503200003 | 14 | 123 | 3.2 | 6.4 | 0.00 | 0.00 | 0.00 | 83 | 1014.6 |
| 20260503194503 | 15 | 115 | 4.8 | 9.7 | 0.00 | 0.00 | 0.00 | 81 | 1014.3 |
| 20260503193003 | 15 | 120 | 4.8 | 14.5 | 0.00 | 0.00 | 0.00 | 79 | 1014.3 |
| 20260503191503 | 15 | 119 | 6.4 | 11.3 | 0.00 | 0.00 | 0.00 | 78 | 1014.2 |
| 20260503190003 | 16 | 131 | 6.4 | 11.3 | 0.00 | 0.00 | 0.00 | 76 | 1013.8 |
| 20260503184503 | 16 | 125 | 6.4 | 17.7 | 0.00 | 0.00 | 0.00 | 73 | 1014.0 |
| 20260503183003 | 17 | 119 | 6.4 | 14.5 | 0.00 | 0.00 | 0.00 | 72 | 1013.5 |
| 20260503181504 | 17 | 149 | 8.0 | 20.9 | 0.00 | 0.00 | 0.00 | 72 | 1013.6 |
| 20260503180003 | 17 | 116 | 6.4 | 14.5 | 0.00 | 0.00 | 0.00 | 71 | 1013.7 |
| 20260503174503 | 17 | 105 | 6.4 | 14.5 | 0.00 | 0.00 | 0.00 | 67 | 1013.7 |
| 20260503173003 | 17 | 144 | 8.0 | 17.7 | 0.00 | 0.00 | 0.00 | 66 | 1013.5 |
| 20260503171503 | 17 | 141 | 8.0 | 22.5 | 0.00 | 0.00 | 0.00 | 67 | 1013.4 |
| 20260503081503 | 15 | 353 | 1.6 | 6.4 | 0.00 | 0.00 | 0.00 | 100 | 1015.0 |
| 20260503071503 | 12 | 10 | 1.6 | 6.4 | 0.00 | 0.00 | 0.00 | 100 | 1014.8 |
| 20260503054503 | 12 | 45 | 0.0 | 3.2 | 0.00 | 0.00 | 0.00 | 100 | 1014.4 |
| 20260503053003 | 12 | 43 | 0.0 | 3.2 | 0.00 | 0.00 | 0.00 | 100 | 1014.1 |
| 20260503051503 | 12 | 55 | 0.0 | 3.2 | 0.00 | 0.00 | 0.00 | 100 | 1014.3 |
| 20260503050003 | 12 | 53 | 0.0 | 6.4 | 0.00 | 0.00 | 0.00 | 100 | 1014.3 |
| 20260503044503 | 12 | 65 | 0.0 | 3.2 | 0.00 | 0.00 | 0.00 | 100 | 1014.2 |
| 20260503043003 | 12 | 357 | 1.6 | 6.4 | 0.00 | 0.00 | 0.00 | 100 | 1014.3 |
| 20260503041503 | 12 | 6 | 0.0 | 3.2 | 0.00 | 0.00 | 0.00 | 100 | 1014.2 |
| 20260503040003 | 12 | 350 | 1.6 | 6.4 | 0.00 | 0.00 | 0.00 | 100 | 1014.1 |
| 20260503034503 | 12 | 0 | 0.0 | 3.2 | 0.00 | 0.00 | 0.00 | 100 | 1014.4 |
| 20260503033003 | 12 | 0 | 0.0 | 0.0 | 0.00 | 0.00 | 0.00 | 100 | 1014.2 |
| 20260503031503 | 12 | 22 | 0.0 | 3.2 | 0.00 | 0.00 | 0.00 | 100 | 1014.6 |
| 20260503030003 | 12 | 37 | 0.0 | 3.2 | 0.00 | 0.00 | 0.00 | 100 | 1014.8 |
| 20260503024503 | 12 | 67 | 0.0 | 3.2 | 0.00 | 0.00 | 0.00 | 100 | 1014.4 |
| 20260503023003 | 12 | 0 | 0.0 | 0.0 | 0.00 | 0.00 | 0.00 | 100 | 1014.6 |
| 20260503021503 | 12 | 0 | 0.0 | 0.0 | 0.00 | 0.00 | 0.00 | 100 | 1014.8 |
| 20260503020003 | 11 | 0 | 0.0 | 0.0 | 0.00 | 0.00 | 0.00 | 100 | 1014.8 |
| 20260503014503 | 12 | 0 | 0.0 | 0.0 | 0.00 | 0.00 | 0.00 | 100 | 1014.9 |
| 20260503013003 | 12 | 0 | 0.0 | 0.0 | 0.00 | 0.00 | 0.00 | 97 | 1015.0 |
| 20260503011503 | 12 | 0 | 0.0 | 0.0 | 0.00 | 0.00 | 0.00 | 97 | 1015.1 |
| 20260503010003 | 12 | 0 | 0.0 | 3.2 | 0.00 | 0.00 | 0.00 | 97 | 1015.2 |
| 20260503004503 | 12 | 0 | 0.0 | 3.2 | 0.00 | 0.00 | 0.00 | 97 | 1015.3 |
| 20260503003003 | 12 | 0 | 0.0 | 0.0 | 0.00 | 0.00 | 0.00 | 96 | 1015.6 |
| 20260503001503 | 12 | 50 | 0.0 | 3.2 | 0.00 | 0.00 | 0.00 | 96 | 1015.5 |
| 20260503000003 | 12 | 75 | 0.0 | 3.2 | 0.00 | 0.00 | 0.00 | 96 | 1015.7 |
| 20260502234503 | 12 | 100 | 1.6 | 3.2 | 0.00 | 0.00 | 0.00 | 96 | 1015.7 |
| 20260502233003 | 13 | 93 | 1.6 | 6.4 | 0.00 | 0.00 | 0.00 | 95 | 1015.8 |
| 20260502231503 | 13 | 102 | 1.6 | 6.4 | 0.00 | 0.00 | 0.00 | 95 | 1015.8 |
| 20260502230004 | 13 | 95 | 3.2 | 6.4 | 0.00 | 0.00 | 0.00 | 95 | 1015.9 |
| 20260502224503 | 13 | 98 | 3.2 | 6.4 | 0.00 | 0.00 | 0.00 | 94 | 1015.8 |
| 20260502223003 | 13 | 107 | 3.2 | 6.4 | 0.00 | 0.00 | 0.00 | 94 | 1015.7 |
| 20260502221503 | 13 | 110 | 3.2 | 6.4 | 0.00 | 0.00 | 0.00 | 94 | 1015.8 |
| 20260502220003 | 14 | 97 | 3.2 | 6.4 | 0.00 | 0.00 | 0.00 | 93 | 1015.9 |
| 20260502214503 | 14 | 101 | 1.6 | 6.4 | 0.00 | 0.00 | 0.00 | 93 | 1015.9 |
| 20260502213003 | 15 | 94 | 1.6 | 6.4 | 0.00 | 0.00 | 0.00 | 92 | 1016.0 |
| 20260502211503 | 15 | 109 | 3.2 | 6.4 | 0.00 | 0.00 | 0.00 | 91 | 1016.1 |
| 20260502210003 | 15 | 101 | 3.2 | 6.4 | 0.00 | 0.00 | 0.00 | 90 | 1015.9 |
| 20260502204503 | 16 | 111 | 3.2 | 6.4 | 0.00 | 0.00 | 0.00 | 88 | 1015.7 |
| 20260502203003 | 16 | 109 | 3.2 | 6.4 | 0.00 | 0.00 | 0.00 | 87 | 1015.2 |